CRL226 LFMN-GOBD

Flight info

Callsign CRL226
Flight time N/A
Altitude 29000
Route RUBAS DCT BALEN/N0480F350 DCT SORAS DCT NOMTO DCT NELAS DCT POS DCT OLUTO DCT ADX DCT OKITI DCT IBEBA DCT BAVER DCT GERVU DCT ALT DCT RESTU DCT DOSEK DCT AMR DCT GONZA DCT BERUM UG850 BOKPA/N0478F370 UG850 FES UM372 DIDOV DCT ECHED/N0482F360 UR975 BIMOG/N0475F380 UR975 ZRT DCT MINBA DCT SEPEL UR975 SAKLI SAKLI1G
Aircraft A339/H-SADE1E2E3GHIJ3J5M1P2RWXY/LB2D1

Departure

Time 2026-05-04 08:35
Airport Nice-Côte d'Azur Airport (LFMN)

Arrival

Time N/A
Airport Blaise Diagne International Airport (GOBD)
Time Latitude Longitude Altitude Speed Heading
2026-05-04 08:20 43.66381 7.21186 45 ft 0 kts 351°
2026-05-04 08:24 43.66354 7.21191 45 ft 1 kts 351°
2026-05-04 08:24 43.66344 7.21193 45 ft 2 kts 336°
2026-05-04 08:24 43.66333 7.21206 45 ft 2 kts 291°
2026-05-04 08:24 43.66331 7.21224 45 ft 0 kts 262°
2026-05-04 08:25 43.66331 7.21232 45 ft 1 kts 260°
2026-05-04 08:27 43.66321 7.21144 44 ft 7 kts 260°
2026-05-04 08:28 43.66308 7.21055 42 ft 10 kts 249°
2026-05-04 08:28 43.66236 7.21012 40 ft 13 kts 176°
2026-05-04 08:28 43.66137 7.21028 38 ft 15 kts 171°
2026-05-04 08:28 43.66023 7.21055 36 ft 17 kts 169°
2026-05-04 08:29 43.65926 7.21122 34 ft 13 kts 156°
2026-05-04 08:29 43.65850 7.21113 32 ft 10 kts 219°
2026-05-04 08:29 43.65821 7.21024 31 ft 10 kts 251°
2026-05-04 08:31 43.65354 7.20319 25 ft 12 kts 220°
2026-05-04 08:33 43.65121 7.20853 28 ft 50 kts 46°
2026-05-04 08:33 43.65493 7.21395 28 ft 104 kts 51°
2026-05-04 08:35 43.64540 7.29285 2376 ft 198 kts 141°
2026-05-04 08:35 43.63391 7.30473 2634 ft 213 kts 140°
2026-05-04 08:35 43.62205 7.31808 2911 ft 229 kts 140°
2026-05-04 08:35 43.60870 7.33134 3230 ft 246 kts 152°
2026-05-04 08:37 43.51666 7.26734 6990 ft 263 kts 211°
2026-05-04 08:37 43.50111 7.25328 7392 ft 274 kts 211°
2026-05-04 08:37 43.48513 7.23877 8051 ft 276 kts 211°
2026-05-04 08:38 43.46921 7.22428 8769 ft 275 kts 212°
2026-05-04 08:38 43.45305 7.20957 9489 ft 274 kts 212°
2026-05-04 08:38 43.43706 7.19504 10172 ft 275 kts 212°
2026-05-04 08:40 43.30636 7.07644 12296 ft 369 kts 213°
2026-05-04 08:40 43.28487 7.05700 12862 ft 373 kts 213°
2026-05-04 08:40 43.26310 7.03733 13465 ft 376 kts 213°
2026-05-04 08:41 43.24119 7.01755 14044 ft 379 kts 213°
2026-05-04 08:41 43.21926 6.99775 14657 ft 382 kts 213°
2026-05-04 08:41 43.19682 6.97809 15257 ft 384 kts 211°
2026-05-04 08:41 43.17306 6.96057 15838 ft 388 kts 206°
2026-05-04 08:42 43.14843 6.94580 16368 ft 392 kts 202°
2026-05-04 08:42 43.12221 6.93260 16936 ft 396 kts 201°
2026-05-04 08:42 43.09645 6.91988 17500 ft 399 kts 201°
2026-05-04 08:42 43.07023 6.90697 18045 ft 402 kts 201°
2026-05-04 08:43 43.04364 6.89389 18575 ft 405 kts 201°
2026-05-04 08:43 43.01706 6.88084 19139 ft 408 kts 201°
2026-05-04 08:43 42.99031 6.86770 19698 ft 410 kts 201°
2026-05-04 08:43 42.96355 6.85456 20207 ft 413 kts 201°
2026-05-04 08:44 42.93630 6.84118 20710 ft 415 kts 201°
2026-05-04 08:44 42.90899 6.82778 21202 ft 418 kts 201°
2026-05-04 08:46 42.71335 6.73219 24288 ft 435 kts 202°
2026-05-04 08:46 42.68476 6.71829 24691 ft 437 kts 202°
2026-05-04 08:46 42.65612 6.70435 25096 ft 438 kts 202°
2026-05-04 08:46 42.62724 6.69031 25469 ft 440 kts 202°
2026-05-04 08:47 42.59792 6.67608 25837 ft 442 kts 203°
2026-05-04 08:47 42.56881 6.66197 26206 ft 444 kts 203°
2026-05-04 08:47 42.53974 6.64788 26552 ft 446 kts 203°
2026-05-04 08:47 42.51035 6.63365 26891 ft 448 kts 203°
2026-05-04 08:48 42.48061 6.61927 27245 ft 449 kts 203°
2026-05-04 08:48 42.45133 6.60512 27569 ft 450 kts 203°
2026-05-04 08:48 42.42170 6.59084 27962 ft 450 kts 204°
2026-05-04 08:48 42.39194 6.57630 28341 ft 450 kts 205°
2026-05-04 08:49 42.36299 6.56022 28688 ft 449 kts 208°
2026-05-04 08:50 42.19264 6.45364 29027 ft 448 kts 209°
2026-05-04 08:50 42.16433 6.43594 29026 ft 448 kts 210°
2026-05-04 08:51 42.10769 6.40057 29023 ft 447 kts 209°
2026-05-04 08:51 42.05133 6.36546 29023 ft 447 kts 210°
2026-05-04 08:52 41.99536 6.33064 29022 ft 446 kts 209°
2026-05-04 08:52 41.93869 6.29548 29020 ft 445 kts 209°
2026-05-04 08:54 41.71308 6.15606 29016 ft 441 kts 210°
2026-05-04 08:55 41.65731 6.12176 29022 ft 441 kts 210°
2026-05-04 08:55 41.60143 6.08746 29018 ft 440 kts 210°
2026-05-04 09:01 41.02018 5.73142 31929 ft 419 kts 217°
2026-05-04 09:01 40.99587 5.70998 32305 ft 414 kts 222°
2026-05-04 09:01 40.97358 5.68640 32698 ft 409 kts 226°
2026-05-04 09:01 40.95294 5.66049 33071 ft 404 kts 230°
2026-05-04 09:02 40.93437 5.63286 33440 ft 400 kts 234°
2026-05-04 09:02 40.91773 5.60354 33742 ft 398 kts 238°
2026-05-04 09:02 40.90312 5.57284 34055 ft 396 kts 242°
2026-05-04 09:02 40.89020 5.54061 34397 ft 393 kts 244°
2026-05-04 09:03 40.87776 5.50856 34664 ft 392 kts 244°
2026-05-04 09:03 40.86548 5.47664 34886 ft 392 kts 243°
2026-05-04 09:03 40.85318 5.44474 35012 ft 393 kts 244°
2026-05-04 09:04 40.82835 5.38006 35019 ft 394 kts 244°
2026-05-04 09:04 40.80361 5.31571 35026 ft 394 kts 244°
2026-05-04 09:05 40.77882 5.25106 35025 ft 395 kts 243°
2026-05-04 09:05 40.75402 5.18655 35022 ft 395 kts 243°
2026-05-04 09:06 40.72926 5.12230 35019 ft 395 kts 244°
2026-05-04 09:08 40.62953 4.86507 34996 ft 395 kts 244°
2026-05-04 09:08 40.60438 4.80061 34987 ft 396 kts 244°
2026-05-04 09:09 40.57924 4.73618 35000 ft 397 kts 244°
2026-05-04 09:09 40.55413 4.67189 35009 ft 397 kts 244°
2026-05-04 09:10 40.52884 4.60744 35002 ft 399 kts 244°
2026-05-04 09:10 40.50348 4.54302 34990 ft 399 kts 243°
2026-05-04 09:11 40.47793 4.47832 34988 ft 399 kts 243°
2026-05-04 09:11 40.45250 4.41391 34986 ft 400 kts 243°
2026-05-04 09:12 40.42689 4.34912 34981 ft 402 kts 242°
2026-05-04 09:14 40.32378 4.09007 34988 ft 405 kts 242°
2026-05-04 09:14 40.29774 4.02496 34987 ft 405 kts 242°
2026-05-04 09:15 40.27157 3.95970 34984 ft 405 kts 242°
2026-05-04 09:15 40.24536 3.89444 34986 ft 406 kts 242°
2026-05-04 09:17 40.12680 3.60139 34983 ft 406 kts 242°
2026-05-04 09:18 40.10046 3.53672 34987 ft 405 kts 242°
2026-05-04 09:18 40.07391 3.47177 34986 ft 405 kts 242°
2026-05-04 09:19 40.04734 3.40672 34983 ft 405 kts 242°
2026-05-04 09:19 40.02086 3.34203 34985 ft 405 kts 241°
2026-05-04 09:20 39.99427 3.27725 34982 ft 406 kts 241°
2026-05-04 09:20 39.96770 3.21265 34979 ft 407 kts 241°
2026-05-04 09:21 39.94087 3.14759 34981 ft 406 kts 240°
2026-05-04 09:21 39.91166 3.08523 34990 ft 405 kts 236°
2026-05-04 09:22 39.87997 3.02440 34991 ft 406 kts 236°
2026-05-04 09:22 39.84838 2.96362 34996 ft 405 kts 236°
2026-05-04 09:23 39.81692 2.90342 34992 ft 405 kts 236°
2026-05-04 09:23 39.78527 2.84297 35005 ft 405 kts 236°
2026-05-04 09:25 39.65808 2.60142 35010 ft 404 kts 237°
2026-05-04 09:26 39.62634 2.54134 34996 ft 404 kts 236°
2026-05-04 09:26 39.59455 2.48127 34991 ft 404 kts 236°
2026-05-04 09:27 39.56267 2.42115 34983 ft 404 kts 237°
2026-05-04 09:27 39.53322 2.35970 34983 ft 404 kts 240°
2026-05-04 09:28 39.50494 2.29698 34982 ft 404 kts 239°
2026-05-04 09:28 39.47648 2.23393 34988 ft 404 kts 239°
2026-05-04 09:29 39.44828 2.17143 34981 ft 404 kts 239°
2026-05-04 09:29 39.41984 2.10855 34977 ft 405 kts 239°
2026-05-04 09:30 39.39142 2.04579 34974 ft 404 kts 240°
2026-05-04 09:30 39.36303 1.98320 34971 ft 404 kts 240°
2026-05-04 09:31 39.33469 1.92081 34972 ft 404 kts 239°
2026-05-04 09:31 39.30611 1.85804 34978 ft 403 kts 239°
2026-05-04 09:32 39.27768 1.79574 34978 ft 403 kts 239°
2026-05-04 09:34 39.16301 1.54562 34989 ft 403 kts 239°
2026-05-04 09:34 39.13428 1.48260 34993 ft 405 kts 241°
2026-05-04 09:35 39.10928 1.41803 34980 ft 406 kts 245°
2026-05-04 09:35 39.08791 1.35025 35199 ft 410 kts 247°
2026-05-04 09:37 39.01510 1.11278 36717 ft 407 kts 247°
2026-05-04 09:37 39.00464 1.07873 36934 ft 407 kts 247°
2026-05-04 09:38 38.99421 1.04483 37248 ft 405 kts 247°
2026-05-04 09:38 38.98391 1.01134 37536 ft 404 kts 247°
2026-05-04 09:38 38.97362 0.97793 37747 ft 404 kts 247°
2026-05-04 09:38 38.96328 0.94444 37941 ft 404 kts 247°
2026-05-04 09:39 38.95291 0.91092 38116 ft 404 kts 247°
2026-05-04 09:39 38.94258 0.87751 38283 ft 404 kts 247°
2026-05-04 09:39 38.93232 0.84432 38457 ft 404 kts 247°
2026-05-04 09:39 38.92187 0.81063 38640 ft 403 kts 247°
2026-05-04 09:40 38.91145 0.77703 38820 ft 403 kts 247°
2026-05-04 09:40 38.90113 0.74379 38962 ft 403 kts 247°
2026-05-04 09:40 38.88038 0.67713 38968 ft 404 kts 247°
2026-05-04 09:42 38.78479 0.41670 38973 ft 404 kts 237°
2026-05-04 09:43 38.75369 0.35630 38973 ft 404 kts 238°
2026-05-04 09:43 38.72263 0.29604 38982 ft 404 kts 237°
2026-05-04 09:44 38.69168 0.23622 38981 ft 404 kts 237°
2026-05-04 09:46 38.56672 -0.00378 38986 ft 405 kts 237°
2026-05-04 09:46 38.53507 -0.06431 38983 ft 405 kts 237°
2026-05-04 09:47 38.50385 -0.12380 38980 ft 405 kts 237°
2026-05-04 09:49 38.37832 -0.36217 38984 ft 406 kts 237°
2026-05-04 09:51 38.27005 -0.57155 38982 ft 405 kts 241°
2026-05-04 09:51 38.24482 -0.63540 38972 ft 405 kts 245°
2026-05-04 09:52 38.22147 -0.69986 38976 ft 405 kts 244°
2026-05-04 09:52 38.19787 -0.76489 38982 ft 405 kts 245°
2026-05-04 09:53 38.17442 -0.82961 38965 ft 405 kts 245°
2026-05-04 09:53 38.15083 -0.89459 38968 ft 405 kts 245°
2026-05-04 09:54 38.12734 -0.95919 38975 ft 405 kts 245°
2026-05-04 09:54 38.10367 -1.02419 38968 ft 405 kts 245°
2026-05-04 09:55 38.08013 -1.08863 38974 ft 406 kts 245°
2026-05-04 09:55 38.05636 -1.15364 38978 ft 406 kts 245°
2026-05-04 09:56 38.03273 -1.21810 38976 ft 406 kts 245°
2026-05-04 09:56 38.00885 -1.28310 38977 ft 407 kts 245°
2026-05-04 09:57 37.98508 -1.34763 38978 ft 406 kts 245°
2026-05-04 09:57 37.96114 -1.41254 38980 ft 406 kts 245°
2026-05-04 09:58 37.93475 -1.47523 38983 ft 406 kts 238°
2026-05-04 09:58 37.90017 -1.53181 38988 ft 408 kts 230°
2026-05-04 10:00 37.73248 -1.67055 39006 ft 418 kts 212°
2026-05-04 10:00 37.70654 -1.68745 38995 ft 418 kts 212°
2026-05-04 10:04 37.34282 -1.92231 39008 ft 419 kts 212°
2026-05-04 10:04 37.29092 -1.95560 39005 ft 420 kts 212°
2026-05-04 10:05 37.23872 -1.98908 38990 ft 420 kts 212°
2026-05-04 10:05 37.18742 -2.02329 38986 ft 420 kts 213°
2026-05-04 10:06 37.13601 -2.05775 39007 ft 419 kts 213°
2026-05-04 10:06 37.08456 -2.09213 39003 ft 420 kts 213°
2026-05-04 10:08 36.90427 -2.21202 39005 ft 420 kts 213°
2026-05-04 10:08 36.85349 -2.24711 39025 ft 418 kts 217°
2026-05-04 10:09 36.80566 -2.28716 38994 ft 414 kts 221°
2026-05-04 10:09 36.76031 -2.33154 38993 ft 413 kts 223°
2026-05-04 10:10 36.71523 -2.37598 39006 ft 413 kts 223°
2026-05-04 10:10 36.67043 -2.42020 38995 ft 413 kts 223°
2026-05-04 10:11 36.62530 -2.46467 38995 ft 413 kts 223°
2026-05-04 10:11 36.58040 -2.50893 38988 ft 413 kts 223°
2026-05-04 10:12 36.53525 -2.55335 38992 ft 413 kts 223°
2026-05-04 10:12 36.49028 -2.59754 39012 ft 412 kts 223°
2026-05-04 10:13 36.44546 -2.64151 39007 ft 412 kts 223°
2026-05-04 10:13 36.40049 -2.68555 39017 ft 412 kts 223°
2026-05-04 10:14 36.35530 -2.72976 39012 ft 413 kts 223°
2026-05-04 10:16 36.17464 -2.90583 39032 ft 414 kts 223°
2026-05-04 10:16 36.12951 -2.94960 39037 ft 412 kts 223°
2026-05-04 10:17 36.08460 -2.99311 39022 ft 413 kts 223°
2026-05-04 10:19 35.90380 -3.16775 39032 ft 414 kts 223°
2026-05-04 10:19 35.85857 -3.21126 39030 ft 413 kts 223°
2026-05-04 10:20 35.81328 -3.25456 39039 ft 414 kts 223°
2026-05-04 10:20 35.76754 -3.29751 39031 ft 414 kts 223°
2026-05-04 10:21 35.72178 -3.34048 39035 ft 414 kts 223°
2026-05-04 10:21 35.67631 -3.38313 39036 ft 413 kts 223°
2026-05-04 10:22 35.60768 -3.44743 39029 ft 414 kts 223°
2026-05-04 10:23 35.56198 -3.49016 39038 ft 414 kts 223°
2026-05-04 10:25 35.37916 -3.66057 39046 ft 413 kts 223°
2026-05-04 10:25 35.33355 -3.70293 39055 ft 412 kts 223°
2026-05-04 10:26 35.28791 -3.74527 39056 ft 412 kts 223°
2026-05-04 10:26 35.24234 -3.78749 39060 ft 411 kts 223°
2026-05-04 10:27 35.19670 -3.82968 39057 ft 411 kts 223°
2026-05-04 10:27 35.15145 -3.87229 39062 ft 411 kts 224°
2026-05-04 10:28 35.10645 -3.91524 39075 ft 410 kts 224°
2026-05-04 10:28 35.06127 -3.95829 39072 ft 412 kts 224°
2026-05-04 10:29 35.01627 -4.00103 39084 ft 413 kts 224°
2026-05-04 10:29 34.97110 -4.04389 39082 ft 412 kts 224°
2026-05-04 10:30 34.92589 -4.08672 39090 ft 412 kts 224°
2026-05-04 10:30 34.88042 -4.12971 39101 ft 413 kts 224°
2026-05-04 10:31 34.83524 -4.17240 39102 ft 414 kts 224°
2026-05-04 10:32 34.67598 -4.32232 39109 ft 414 kts 224°
2026-05-04 10:33 34.63067 -4.36484 39106 ft 414 kts 224°
2026-05-04 10:33 34.58526 -4.40736 39095 ft 414 kts 224°
2026-05-04 10:34 34.53956 -4.45014 39092 ft 414 kts 224°
2026-05-04 10:34 34.49412 -4.49263 39092 ft 414 kts 224°
2026-05-04 10:35 34.44844 -4.53524 39091 ft 414 kts 224°
2026-05-04 10:35 34.40266 -4.57789 39082 ft 415 kts 224°
2026-05-04 10:36 34.35700 -4.62014 39078 ft 415 kts 223°
2026-05-04 10:36 34.31104 -4.66237 39078 ft 415 kts 223°
2026-05-04 10:37 34.26508 -4.70459 39077 ft 414 kts 223°
2026-05-04 10:37 34.21957 -4.74638 39077 ft 414 kts 223°
2026-05-04 10:39 34.05924 -4.89314 39088 ft 414 kts 223°
2026-05-04 10:40 34.01339 -4.93498 39091 ft 413 kts 223°
2026-05-04 10:40 33.96747 -4.97685 39094 ft 413 kts 223°
2026-05-04 10:41 33.92178 -5.01833 39099 ft 412 kts 223°
2026-05-04 10:41 33.87529 -5.05878 39103 ft 411 kts 222°
2026-05-04 10:42 33.82903 -5.09873 39107 ft 411 kts 222°
2026-05-04 10:42 33.78256 -5.13892 39113 ft 410 kts 222°
2026-05-04 10:43 33.73643 -5.17880 39116 ft 410 kts 221°
2026-05-04 10:45 33.55087 -5.33878 39128 ft 412 kts 221°
2026-05-04 10:45 33.50427 -5.37885 39134 ft 411 kts 221°
2026-05-04 10:46 33.45793 -5.41859 39133 ft 411 kts 221°
2026-05-04 10:46 33.41137 -5.45838 39130 ft 412 kts 221°
2026-05-04 10:47 33.36498 -5.49801 39127 ft 411 kts 221°
2026-05-04 10:47 33.31839 -5.53776 39125 ft 411 kts 221°
2026-05-04 10:49 33.13203 -5.69628 39137 ft 412 kts 221°
2026-05-04 10:50 33.08529 -5.73591 39132 ft 412 kts 221°
2026-05-04 10:52 32.89810 -5.89410 39129 ft 415 kts 221°
2026-05-04 10:52 32.85106 -5.93373 39124 ft 414 kts 221°
2026-05-04 10:54 32.66720 -6.09619 39113 ft 411 kts 224°
2026-05-04 10:56 32.48809 -6.26499 39086 ft 412 kts 224°
2026-05-04 10:57 32.44328 -6.30712 39079 ft 412 kts 224°
2026-05-04 10:57 32.39822 -6.34942 39084 ft 413 kts 224°
2026-05-04 10:58 32.35306 -6.39177 39090 ft 413 kts 224°
2026-05-04 10:58 32.30828 -6.43370 39096 ft 412 kts 224°
2026-05-04 10:59 32.26326 -6.47580 39102 ft 413 kts 224°
2026-05-04 10:59 32.21850 -6.51760 39096 ft 413 kts 224°
2026-05-04 11:00 32.17349 -6.55958 39116 ft 412 kts 224°
2026-05-04 11:02 31.99349 -6.72694 39130 ft 412 kts 224°
2026-05-04 11:05 31.65557 -7.03882 39104 ft 413 kts 224°
2026-05-04 11:06 31.61053 -7.08018 39108 ft 414 kts 224°
2026-05-04 11:06 31.56545 -7.12153 39116 ft 412 kts 224°
2026-05-04 11:10 31.24813 -7.41098 39214 ft 414 kts 224°
2026-05-04 11:12 31.06633 -7.57567 39240 ft 413 kts 224°
2026-05-04 11:12 31.02107 -7.61653 39242 ft 414 kts 224°
2026-05-04 11:13 30.97550 -7.65763 39259 ft 414 kts 224°
2026-05-04 11:13 30.93012 -7.69853 39253 ft 414 kts 224°
2026-05-04 11:14 30.88451 -7.73953 39265 ft 414 kts 224°
2026-05-04 11:16 30.70210 -7.90319 39239 ft 414 kts 224°
2026-05-04 11:16 30.65660 -7.94388 39234 ft 413 kts 224°
2026-05-04 11:17 30.61100 -7.98458 39210 ft 414 kts 224°
2026-05-04 11:19 30.42836 -8.14722 39181 ft 414 kts 224°
2026-05-04 11:19 30.38257 -8.18789 39183 ft 414 kts 224°
2026-05-04 11:20 30.33697 -8.22832 39188 ft 414 kts 224°
2026-05-04 11:20 30.29115 -8.26890 39190 ft 414 kts 224°
2026-05-04 11:22 30.10862 -8.43003 39175 ft 414 kts 225°
2026-05-04 11:23 30.06293 -8.47028 39172 ft 413 kts 224°
2026-05-04 11:25 29.90294 -8.61076 39161 ft 412 kts 225°
2026-05-04 11:25 29.85742 -8.65060 39160 ft 412 kts 224°
2026-05-04 11:27 29.65024 -8.83145 39130 ft 413 kts 224°
2026-05-04 11:28 29.60447 -8.87127 39119 ft 412 kts 224°
2026-05-04 11:28 29.55841 -8.91128 39108 ft 413 kts 224°
2026-05-04 11:29 29.51262 -8.95104 39106 ft 413 kts 224°
2026-05-04 11:29 29.46635 -8.99113 39114 ft 413 kts 224°
2026-05-04 11:33 29.14395 -9.26935 39059 ft 415 kts 224°
2026-05-04 11:33 29.09768 -9.30909 39061 ft 415 kts 224°
2026-05-04 11:34 29.05155 -9.34866 39055 ft 414 kts 224°
2026-05-04 11:34 29.00560 -9.38803 39045 ft 414 kts 224°
2026-05-04 11:35 28.95901 -9.42792 39032 ft 415 kts 224°
2026-05-04 11:35 28.91279 -9.46745 39023 ft 414 kts 224°
2026-05-04 11:36 28.86679 -9.50675 39031 ft 415 kts 224°
2026-05-04 11:36 28.81996 -9.54670 39032 ft 415 kts 224°
2026-05-04 11:37 28.77342 -9.58632 39030 ft 415 kts 224°
2026-05-04 11:37 28.72726 -9.62561 39032 ft 415 kts 224°
2026-05-04 11:38 28.68098 -9.66497 39032 ft 415 kts 223°
2026-05-04 11:38 28.63464 -9.70434 39029 ft 417 kts 223°
2026-05-04 11:39 28.58797 -9.74392 39028 ft 417 kts 223°
2026-05-04 11:41 28.42516 -9.88166 39031 ft 417 kts 223°
2026-05-04 11:41 28.37826 -9.92125 39030 ft 418 kts 223°
2026-05-04 11:42 28.33151 -9.96066 39033 ft 418 kts 223°
2026-05-04 11:42 28.28466 -10.00013 39032 ft 419 kts 223°
2026-05-04 11:43 28.23748 -10.03981 39027 ft 419 kts 222°
2026-05-04 11:43 28.19084 -10.07898 39023 ft 419 kts 222°
2026-05-04 11:44 28.14385 -10.11841 39004 ft 419 kts 223°
2026-05-04 11:44 28.09679 -10.15786 38985 ft 420 kts 222°
2026-05-04 11:45 28.04971 -10.19730 39015 ft 420 kts 222°
2026-05-04 11:45 28.00276 -10.23656 39039 ft 421 kts 223°
2026-05-04 11:46 27.95564 -10.27593 39024 ft 421 kts 222°
2026-05-04 11:46 27.90865 -10.31518 38817 ft 421 kts 222°
2026-05-04 11:46 27.88474 -10.33511 38506 ft 420 kts 222°
2026-05-04 11:47 27.86127 -10.35465 38216 ft 419 kts 222°
2026-05-04 11:47 27.83777 -10.37425 37921 ft 419 kts 222°
2026-05-04 11:47 27.81422 -10.39385 37626 ft 419 kts 222°
2026-05-04 11:47 27.79104 -10.41315 37339 ft 419 kts 222°
2026-05-04 11:48 27.76750 -10.43273 37053 ft 419 kts 223°
2026-05-04 11:48 27.74388 -10.45237 36770 ft 420 kts 222°
2026-05-04 11:48 27.72053 -10.47158 36490 ft 420 kts 221°
2026-05-04 11:48 27.69601 -10.48994 36205 ft 423 kts 218°
2026-05-04 11:49 27.67057 -10.50693 36055 ft 424 kts 216°
2026-05-04 11:49 27.61761 -10.53654 36054 ft 430 kts 211°
2026-05-04 11:50 27.56143 -10.56153 36052 ft 431 kts 208°
2026-05-04 11:50 27.50547 -10.58575 36054 ft 430 kts 208°
2026-05-04 11:51 27.44945 -10.60990 36055 ft 430 kts 208°
2026-05-04 11:51 27.39300 -10.63419 36057 ft 431 kts 208°
2026-05-04 11:52 27.33687 -10.65828 36053 ft 432 kts 208°
2026-05-04 11:52 27.28054 -10.68245 36048 ft 432 kts 208°
2026-05-04 11:53 27.22465 -10.70636 36049 ft 433 kts 208°
2026-05-04 11:53 27.16833 -10.73047 36047 ft 433 kts 208°
2026-05-04 11:55 26.94302 -10.82658 36042 ft 433 kts 208°
2026-05-04 11:56 26.88654 -10.85061 36049 ft 433 kts 208°
2026-05-04 11:56 26.83026 -10.87452 36047 ft 433 kts 208°
2026-05-04 11:57 26.77389 -10.89846 36048 ft 433 kts 208°
2026-05-04 11:57 26.71695 -10.92260 36049 ft 434 kts 208°
2026-05-04 11:58 26.66054 -10.94651 36053 ft 432 kts 208°
2026-05-04 11:58 26.60405 -10.97042 36056 ft 432 kts 207°
2026-05-04 11:59 26.54777 -10.99420 36054 ft 433 kts 207°
2026-05-04 11:59 26.49091 -11.01821 36046 ft 433 kts 208°
2026-05-04 12:00 26.43376 -11.04232 36040 ft 433 kts 208°
2026-05-04 12:00 26.37729 -11.06611 36042 ft 434 kts 208°
2026-05-04 12:01 26.32100 -11.08982 36043 ft 433 kts 208°
2026-05-04 12:02 26.12308 -11.17294 36055 ft 431 kts 208°
2026-05-04 12:03 26.06703 -11.19643 36067 ft 430 kts 208°
2026-05-04 12:03 26.01068 -11.22000 36079 ft 431 kts 208°
2026-05-04 12:04 25.95454 -11.24349 36078 ft 431 kts 208°
2026-05-04 12:04 25.89833 -11.26697 36073 ft 429 kts 208°
2026-05-04 12:05 25.84242 -11.29030 36072 ft 429 kts 207°
2026-05-04 12:05 25.78645 -11.31363 36071 ft 428 kts 208°
2026-05-04 12:06 25.73042 -11.33699 36073 ft 428 kts 207°
2026-05-04 12:06 25.67428 -11.36033 36071 ft 429 kts 207°
2026-05-04 12:07 25.61840 -11.38354 36057 ft 429 kts 208°
2026-05-04 12:07 25.56233 -11.40684 36068 ft 430 kts 207°
2026-05-04 12:08 25.50608 -11.43018 36081 ft 430 kts 208°
2026-05-04 12:08 25.47810 -11.44176 36297 ft 430 kts 208°
2026-05-04 12:08 25.44971 -11.45351 36647 ft 429 kts 207°
2026-05-04 12:09 25.42196 -11.46501 36997 ft 427 kts 208°
2026-05-04 12:09 25.39415 -11.47652 37272 ft 427 kts 208°
2026-05-04 12:09 25.36627 -11.48808 37583 ft 425 kts 208°
2026-05-04 12:09 25.33882 -11.49941 37872 ft 424 kts 208°
2026-05-04 12:10 25.31087 -11.51097 38060 ft 425 kts 208°
2026-05-04 12:10 25.28325 -11.52240 38057 ft 424 kts 208°
2026-05-04 12:10 25.22720 -11.54555 38100 ft 427 kts 207°
2026-05-04 12:11 25.19879 -11.55698 38314 ft 428 kts 207°
2026-05-04 12:11 25.17051 -11.56771 38593 ft 427 kts 206°
2026-05-04 12:11 25.14264 -11.57815 38894 ft 425 kts 206°
2026-05-04 12:11 25.11444 -11.58869 39044 ft 426 kts 206°
2026-05-04 12:12 25.05832 -11.60978 39047 ft 426 kts 206°
2026-05-04 12:12 25.00225 -11.63089 39040 ft 426 kts 206°
2026-05-04 12:14 24.77730 -11.71554 39040 ft 427 kts 206°
2026-05-04 12:15 24.72082 -11.73673 39042 ft 426 kts 206°
2026-05-04 12:15 24.66463 -11.75782 38937 ft 426 kts 206°
2026-05-04 12:16 24.63653 -11.76836 38617 ft 425 kts 206°
2026-05-04 12:16 24.60826 -11.77896 38303 ft 426 kts 206°
2026-05-04 12:16 24.58034 -11.78941 38047 ft 426 kts 205°
2026-05-04 12:16 24.55218 -11.79995 38040 ft 426 kts 206°
2026-05-04 12:17 24.49509 -11.82131 38035 ft 429 kts 206°
2026-05-04 12:17 24.43849 -11.84248 38031 ft 430 kts 206°
2026-05-04 12:18 24.38170 -11.86367 38034 ft 431 kts 205°
2026-05-04 12:18 24.32488 -11.88485 38036 ft 430 kts 206°
2026-05-04 12:19 24.26812 -11.90600 38035 ft 430 kts 205°
2026-05-04 12:19 24.21132 -11.92716 38037 ft 430 kts 206°
2026-05-04 12:20 24.15450 -11.94829 38039 ft 430 kts 206°
2026-05-04 12:20 24.09743 -11.96951 38040 ft 431 kts 206°
2026-05-04 12:21 24.04086 -11.99051 38040 ft 430 kts 205°
2026-05-04 12:21 23.98431 -12.01149 38036 ft 430 kts 206°
2026-05-04 12:22 23.92750 -12.03253 38035 ft 430 kts 206°
2026-05-04 12:22 23.87073 -12.05355 38037 ft 430 kts 206°
2026-05-04 12:23 23.81384 -12.07461 38031 ft 429 kts 205°
2026-05-04 12:23 23.75755 -12.09540 38029 ft 429 kts 205°
2026-05-04 12:24 23.70094 -12.11632 38029 ft 430 kts 205°
2026-05-04 12:24 23.64428 -12.13722 38026 ft 429 kts 205°
2026-05-04 12:25 23.58755 -12.15813 38023 ft 429 kts 205°
2026-05-04 12:25 23.53090 -12.17900 38024 ft 430 kts 205°
2026-05-04 12:26 23.47399 -12.19995 38020 ft 430 kts 205°
2026-05-04 12:26 23.41740 -12.22074 38022 ft 430 kts 205°
2026-05-04 12:27 23.36073 -12.24151 38021 ft 430 kts 205°
2026-05-04 12:27 23.30380 -12.26240 38015 ft 431 kts 205°
2026-05-04 12:28 23.24722 -12.28313 38016 ft 430 kts 205°
2026-05-04 12:28 23.19050 -12.30391 38009 ft 429 kts 205°
2026-05-04 12:29 23.13371 -12.32469 38018 ft 430 kts 205°
2026-05-04 12:29 23.07712 -12.34536 38022 ft 430 kts 205°
2026-05-04 12:30 23.02012 -12.36620 38018 ft 430 kts 205°
2026-05-04 12:30 22.96373 -12.38676 38020 ft 429 kts 205°
2026-05-04 12:31 22.90690 -12.40748 38020 ft 431 kts 205°
2026-05-04 12:31 22.84989 -12.42827 38026 ft 432 kts 205°
2026-05-04 12:32 22.76454 -12.46024 38025 ft 429 kts 207°
2026-05-04 12:33 22.71007 -12.48650 38022 ft 427 kts 211°
2026-05-04 12:33 22.65657 -12.51390 38018 ft 427 kts 211°
2026-05-04 12:34 22.60266 -12.54152 38012 ft 427 kts 211°
2026-05-04 12:34 22.54903 -12.56900 38011 ft 428 kts 211°
2026-05-04 12:35 22.49522 -12.59657 38000 ft 428 kts 211°
2026-05-04 12:35 22.44128 -12.62418 38000 ft 429 kts 211°
2026-05-04 12:36 22.38723 -12.65180 37999 ft 429 kts 211°
2026-05-04 12:36 22.33304 -12.67951 38001 ft 430 kts 211°
2026-05-04 12:37 22.27897 -12.70712 37998 ft 431 kts 211°
2026-05-04 12:37 22.22481 -12.73476 37996 ft 431 kts 210°
2026-05-04 12:38 22.17056 -12.76241 37999 ft 431 kts 210°
2026-05-04 12:38 22.11631 -12.79003 38004 ft 432 kts 211°
2026-05-04 12:39 22.06177 -12.81782 38005 ft 433 kts 210°
2026-05-04 12:39 22.00725 -12.84553 38007 ft 433 kts 210°
2026-05-04 12:40 21.95238 -12.87339 38002 ft 433 kts 210°
2026-05-04 12:40 21.89807 -12.90095 38000 ft 433 kts 210°
2026-05-04 12:41 21.84361 -12.92856 37997 ft 433 kts 210°
2026-05-04 12:41 21.78883 -12.95634 37995 ft 432 kts 210°
2026-05-04 12:42 21.73457 -12.98379 37988 ft 432 kts 211°
2026-05-04 12:42 21.68016 -13.01132 37983 ft 432 kts 211°
2026-05-04 12:43 21.62582 -13.03879 37976 ft 432 kts 211°
2026-05-04 12:43 21.57142 -13.06626 37973 ft 432 kts 211°
2026-05-04 12:44 21.51687 -13.09380 37969 ft 433 kts 211°
2026-05-04 12:44 21.46187 -13.12152 37973 ft 432 kts 211°
2026-05-04 12:45 21.40699 -13.14917 37982 ft 432 kts 211°
2026-05-04 12:45 21.35261 -13.17655 37985 ft 431 kts 211°
2026-05-04 12:46 21.29811 -13.20397 37987 ft 432 kts 210°
2026-05-04 12:46 21.24282 -13.23175 37984 ft 431 kts 211°
2026-05-04 12:47 21.18841 -13.25905 37973 ft 431 kts 211°
2026-05-04 12:47 21.13380 -13.28645 37968 ft 433 kts 211°
2026-05-04 12:48 21.07896 -13.31396 37960 ft 432 kts 211°
2026-05-04 12:48 21.02462 -13.34116 37948 ft 432 kts 211°
2026-05-04 12:49 20.97050 -13.36824 37943 ft 431 kts 211°
2026-05-04 12:49 20.91606 -13.39548 37938 ft 431 kts 211°
2026-05-04 12:50 20.86136 -13.42280 37934 ft 432 kts 211°
2026-05-04 12:50 20.80664 -13.45013 37922 ft 432 kts 211°
2026-05-04 12:51 20.75203 -13.47737 37919 ft 431 kts 211°
2026-05-04 12:51 20.69774 -13.50442 37915 ft 431 kts 211°
2026-05-04 12:52 20.64321 -13.53159 37911 ft 431 kts 211°
2026-05-04 12:52 20.58871 -13.55872 37905 ft 431 kts 211°
2026-05-04 12:53 20.53460 -13.58562 37897 ft 430 kts 211°
2026-05-04 12:53 20.48016 -13.61267 37894 ft 430 kts 211°
2026-05-04 12:54 20.42590 -13.63962 37897 ft 430 kts 211°
2026-05-04 12:54 20.37135 -13.66668 37895 ft 430 kts 211°
2026-05-04 12:55 20.31709 -13.69357 37896 ft 430 kts 211°
2026-05-04 12:55 20.26283 -13.72045 37895 ft 430 kts 211°
2026-05-04 12:56 20.20854 -13.74733 37890 ft 429 kts 211°
2026-05-04 12:56 20.15415 -13.77424 37891 ft 430 kts 211°
2026-05-04 12:57 20.09980 -13.80108 37885 ft 430 kts 211°
2026-05-04 12:57 20.04546 -13.82791 37876 ft 430 kts 211°
2026-05-04 12:58 19.99108 -13.85477 37865 ft 431 kts 211°
2026-05-04 12:58 19.93673 -13.88156 37870 ft 430 kts 211°
2026-05-04 12:59 19.88237 -13.90837 37868 ft 430 kts 211°
2026-05-04 12:59 19.82809 -13.93513 37865 ft 430 kts 211°
2026-05-04 13:00 19.77377 -13.96184 37872 ft 430 kts 212°
2026-05-04 13:00 19.72095 -13.99164 37873 ft 426 kts 216°
2026-05-04 13:01 19.66948 -14.02275 37871 ft 426 kts 215°
2026-05-04 13:01 19.61813 -14.05382 37867 ft 425 kts 216°
2026-05-04 13:02 19.56676 -14.08491 37869 ft 425 kts 216°
2026-05-04 13:02 19.51482 -14.11636 37864 ft 426 kts 215°
2026-05-04 13:03 19.46332 -14.14748 37870 ft 427 kts 216°
2026-05-04 13:03 19.41170 -14.17869 37870 ft 426 kts 215°
2026-05-04 13:04 19.36023 -14.20978 37867 ft 427 kts 216°
2026-05-04 13:04 19.30877 -14.24082 37876 ft 427 kts 215°
2026-05-04 13:05 19.25685 -14.27212 37874 ft 426 kts 215°
2026-05-04 13:05 19.20544 -14.30308 37870 ft 426 kts 216°
2026-05-04 13:06 19.15346 -14.33440 37855 ft 426 kts 216°
2026-05-04 13:06 19.10199 -14.36538 37846 ft 426 kts 216°
2026-05-04 13:07 19.05055 -14.39631 37846 ft 426 kts 216°
2026-05-04 13:07 18.99878 -14.42741 37840 ft 426 kts 216°
2026-05-04 13:08 18.94722 -14.45838 37837 ft 427 kts 216°
2026-05-04 13:08 18.89511 -14.48963 37836 ft 428 kts 216°
2026-05-04 13:09 18.84339 -14.52063 37832 ft 427 kts 216°
2026-05-04 13:09 18.79143 -14.55178 37832 ft 427 kts 216°
2026-05-04 13:10 18.73916 -14.58308 37833 ft 428 kts 216°
2026-05-04 13:10 18.68747 -14.61402 37833 ft 427 kts 215°
2026-05-04 13:11 18.63515 -14.64529 37837 ft 428 kts 216°
2026-05-04 13:11 18.58287 -14.67650 37837 ft 427 kts 215°
2026-05-04 13:12 18.53097 -14.70749 37838 ft 429 kts 216°
2026-05-04 13:12 18.47885 -14.73860 37838 ft 429 kts 215°
2026-05-04 13:13 18.42670 -14.76966 37838 ft 431 kts 216°
2026-05-04 13:13 18.37439 -14.80083 37838 ft 431 kts 216°
2026-05-04 13:14 18.32202 -14.83203 37837 ft 429 kts 215°
2026-05-04 13:14 18.27003 -14.86294 37834 ft 431 kts 216°
2026-05-04 13:15 18.21757 -14.89414 37839 ft 431 kts 216°
2026-05-04 13:15 18.16467 -14.92557 37838 ft 432 kts 215°
2026-05-04 13:16 18.11189 -14.95692 37842 ft 432 kts 215°
2026-05-04 13:16 18.05914 -14.98823 37837 ft 431 kts 215°
2026-05-04 13:17 18.00646 -15.01943 37840 ft 432 kts 216°
2026-05-04 13:17 17.95357 -15.05079 37845 ft 432 kts 215°
2026-05-04 13:18 17.90119 -15.08182 37841 ft 431 kts 216°
2026-05-04 13:18 17.84900 -15.11302 37846 ft 430 kts 217°
2026-05-04 13:19 17.79933 -15.14786 37858 ft 428 kts 221°
2026-05-04 13:19 17.75091 -15.18437 37859 ft 426 kts 221°
2026-05-04 13:20 17.70263 -15.22078 37862 ft 427 kts 221°
2026-05-04 13:20 17.65445 -15.25718 37860 ft 426 kts 221°
2026-05-04 13:21 17.60634 -15.29346 37859 ft 427 kts 221°
2026-05-04 13:21 17.55817 -15.32977 37860 ft 426 kts 221°
2026-05-04 13:22 17.51036 -15.36587 37860 ft 425 kts 221°
2026-05-04 13:22 17.46196 -15.40233 37867 ft 426 kts 221°
2026-05-04 13:23 17.41405 -15.43844 37865 ft 426 kts 221°
2026-05-04 13:23 17.36589 -15.47468 37865 ft 425 kts 221°
2026-05-04 13:24 17.31759 -15.51107 37866 ft 426 kts 221°
2026-05-04 13:24 17.26941 -15.54726 37868 ft 426 kts 221°
2026-05-04 13:25 17.19717 -15.60158 37869 ft 427 kts 221°
2026-05-04 13:25 17.14904 -15.63769 37877 ft 427 kts 221°
2026-05-04 13:26 17.10055 -15.67411 37876 ft 427 kts 221°
2026-05-04 13:26 17.05234 -15.71019 37877 ft 427 kts 220°
2026-05-04 13:27 17.00404 -15.74638 37883 ft 426 kts 220°
2026-05-04 13:27 16.95571 -15.78253 37888 ft 427 kts 221°
2026-05-04 13:28 16.90742 -15.81864 37882 ft 427 kts 221°
2026-05-04 13:28 16.85918 -15.85476 37876 ft 428 kts 221°
2026-05-04 13:29 16.81087 -15.89089 37877 ft 428 kts 221°
2026-05-04 13:29 16.76238 -15.92710 37873 ft 427 kts 221°
2026-05-04 13:30 16.71395 -15.96329 37877 ft 427 kts 220°
2026-05-04 13:30 16.66555 -15.99938 37873 ft 427 kts 221°
2026-05-04 13:31 16.61719 -16.03546 37869 ft 426 kts 220°
2026-05-04 13:31 16.56854 -16.07171 37781 ft 426 kts 221°
2026-05-04 13:32 16.54460 -16.08956 37486 ft 419 kts 220°
2026-05-04 13:32 16.52086 -16.10722 37204 ft 417 kts 220°
2026-05-04 13:32 16.49711 -16.12492 36902 ft 419 kts 220°
2026-05-04 13:32 16.47335 -16.14257 36571 ft 420 kts 220°
2026-05-04 13:33 16.44906 -16.16061 36111 ft 423 kts 220°
2026-05-04 13:33 16.42497 -16.17852 35648 ft 426 kts 220°
2026-05-04 13:33 16.40063 -16.19659 35124 ft 428 kts 219°
2026-05-04 13:33 16.37645 -16.21457 34570 ft 430 kts 219°
2026-05-04 13:34 16.35220 -16.23258 33852 ft 432 kts 219°
2026-05-04 13:34 16.32736 -16.25102 33060 ft 434 kts 219°
2026-05-04 13:34 16.30290 -16.26919 32346 ft 437 kts 218°
2026-05-04 13:34 16.27790 -16.28774 31695 ft 437 kts 218°
2026-05-04 13:35 16.25318 -16.30608 31049 ft 438 kts 217°
2026-05-04 13:35 16.20328 -16.34305 29564 ft 443 kts 217°
2026-05-04 13:35 16.17815 -16.36167 28753 ft 447 kts 216°
2026-05-04 13:36 16.15239 -16.38073 28040 ft 449 kts 216°
2026-05-04 13:36 16.12681 -16.39963 27492 ft 446 kts 216°
2026-05-04 13:36 16.10127 -16.41850 27008 ft 442 kts 216°
2026-05-04 13:36 16.07595 -16.43653 26495 ft 440 kts 213°
2026-05-04 13:37 16.04967 -16.45298 25986 ft 437 kts 210°
2026-05-04 13:37 16.02271 -16.46775 25478 ft 435 kts 207°
2026-05-04 13:37 15.99505 -16.48082 25003 ft 432 kts 204°
2026-05-04 13:37 15.97665 -16.48900 24657 ft 430 kts 204°
2026-05-04 13:38 15.93960 -16.50537 23921 ft 429 kts 204°
2026-05-04 13:38 15.91190 -16.51758 23341 ft 428 kts 204°
2026-05-04 13:38 15.88464 -16.52960 22827 ft 425 kts 204°
2026-05-04 13:38 15.85719 -16.54169 22313 ft 423 kts 204°
2026-05-04 13:39 15.83001 -16.55365 21818 ft 420 kts 204°
2026-05-04 13:39 15.80342 -16.56536 21343 ft 417 kts 203°
2026-05-04 13:39 15.77637 -16.57727 20881 ft 414 kts 203°
2026-05-04 13:39 15.75022 -16.58877 20412 ft 411 kts 203°
2026-05-04 13:40 15.72365 -16.60046 19937 ft 409 kts 203°
2026-05-04 13:40 15.69746 -16.61198 19448 ft 407 kts 203°
2026-05-04 13:40 15.67114 -16.62356 18954 ft 406 kts 203°
2026-05-04 13:40 15.64525 -16.63494 18493 ft 405 kts 203°
2026-05-04 13:41 15.61905 -16.64646 17973 ft 404 kts 202°
2026-05-04 13:41 15.59315 -16.65784 17489 ft 402 kts 202°
2026-05-04 13:41 15.56772 -16.66901 17053 ft 400 kts 202°
2026-05-04 13:42 15.51627 -16.69161 16159 ft 397 kts 202°
2026-05-04 13:42 15.49086 -16.70276 15692 ft 395 kts 201°
2026-05-04 13:42 15.46517 -16.71403 15233 ft 393 kts 201°
2026-05-04 13:42 15.44017 -16.72500 14825 ft 390 kts 201°
2026-05-04 13:43 15.41527 -16.73592 14392 ft 388 kts 201°
2026-05-04 13:43 15.39033 -16.74684 13941 ft 386 kts 201°
2026-05-04 13:43 15.36551 -16.75772 13521 ft 384 kts 201°
2026-05-04 13:43 15.34119 -16.76838 13019 ft 384 kts 201°
2026-05-04 13:44 15.31649 -16.77921 12551 ft 382 kts 200°
2026-05-04 13:44 15.29201 -16.78994 12101 ft 380 kts 200°
2026-05-04 13:44 15.26756 -16.80064 11636 ft 378 kts 200°
2026-05-04 13:44 15.24326 -16.81128 11206 ft 376 kts 200°
2026-05-04 13:45 15.21925 -16.82178 10788 ft 375 kts 200°
2026-05-04 13:45 15.19532 -16.83225 10476 ft 368 kts 200°
2026-05-04 13:45 15.17201 -16.84246 10361 ft 355 kts 200°
2026-05-04 13:45 15.14951 -16.85233 10266 ft 343 kts 200°
2026-05-04 13:46 15.12782 -16.86181 10184 ft 332 kts 199°
2026-05-04 13:46 15.10665 -16.87108 10116 ft 321 kts 199°
2026-05-04 13:46 15.08654 -16.87987 10033 ft 311 kts 199°
2026-05-04 13:46 15.06683 -16.88849 9978 ft 300 kts 199°
2026-05-04 13:47 15.04772 -16.89683 9937 ft 289 kts 199°
2026-05-04 13:47 15.02934 -16.90486 9671 ft 287 kts 198°
2026-05-04 13:47 15.01076 -16.91295 9385 ft 288 kts 198°
2026-05-04 13:47 14.99218 -16.92104 9096 ft 289 kts 198°
2026-05-04 13:48 14.97342 -16.92921 8784 ft 289 kts 199°
2026-05-04 13:48 14.95497 -16.93725 8522 ft 286 kts 199°
2026-05-04 13:48 14.93685 -16.94517 8525 ft 275 kts 199°
2026-05-04 13:48 14.91944 -16.95281 8522 ft 264 kts 200°
2026-05-04 13:49 14.90423 -16.96340 8277 ft 269 kts 226°
2026-05-04 13:49 14.89518 -16.98058 7973 ft 275 kts 255°
2026-05-04 13:49 14.89415 -17.00009 7740 ft 274 kts 279°
2026-05-04 13:49 14.89902 -17.01901 7539 ft 271 kts 287°
2026-05-04 13:50 14.90435 -17.03785 7278 ft 269 kts 283°
2026-05-04 13:50 14.90579 -17.05681 6995 ft 266 kts 255°
2026-05-04 13:50 14.89733 -17.07310 6770 ft 256 kts 225°
2026-05-04 13:50 14.88401 -17.08518 6556 ft 246 kts 201°
2026-05-04 13:51 14.86791 -17.08873 6375 ft 233 kts 170°
2026-05-04 13:51 14.85271 -17.08505 6247 ft 216 kts 159°
2026-05-04 13:51 14.83867 -17.07998 6219 ft 204 kts 159°
2026-05-04 13:51 14.82525 -17.07623 6100 ft 196 kts 166°
2026-05-04 13:52 14.79882 -17.07399 5730 ft 181 kts 176°
2026-05-04 13:52 14.78625 -17.07387 5431 ft 177 kts 177°
2026-05-04 13:52 14.77415 -17.07383 5236 ft 167 kts 178°
2026-05-04 13:53 14.76277 -17.07376 5040 ft 158 kts 177°
2026-05-04 13:53 14.75172 -17.07344 4648 ft 165 kts 174°
2026-05-04 13:53 14.73954 -17.07265 3879 ft 193 kts 176°
2026-05-04 13:54 14.70851 -17.07129 1517 ft 259 kts 181°
2026-05-04 13:54 14.69035 -17.07258 467 ft 263 kts 187°